GW6881 Weather Reports


time (UTC)temp
C
wind
direction
speed
KPH
gust
KPH
rain 1hr
cm
rain 24hr
cm
rain mn
cm
humidity
%
barometer
mb
20260507065016 17 338 1.6 8.0 0.00 0.00 0.00 62 1010.9
20260507064036 17 225 1.6 8.0 0.00 0.00 0.00 66 1010.8
20260507063016 16 248 1.6 9.7 0.00 0.00 0.00 67 1010.8
20260507062056 16 225 1.6 6.4 0.00 0.00 0.00 68 1010.7
20260507061016 16 248 3.2 9.7 0.00 0.00 0.00 68 1010.6
20260507060016 15 248 1.6 6.4 0.00 0.00 0.00 72 1010.5
20260507055016 15 248 1.6 4.8 0.00 0.00 0.00 73 1010.5
20260507054016 15 248 1.6 4.8 0.00 0.00 0.00 74 1010.3
20260507053036 14 0.0 1.6 0.00 0.00 0.00 75 1010.1
20260507052016 14 225 1.6 4.8 0.00 0.00 0.00 75 1009.9
20260507051036 14 0.0 3.2 0.00 0.00 0.00 76 1009.7
20260507050016 13 0.0 1.6 0.00 0.00 0.00 75 1009.5
20260507045016 13 0.0 4.8 0.00 0.00 0.00 75 1009.5
20260507044016 13 248 1.6 6.4 0.00 0.00 0.00 75 1009.5
20260507043016 13 225 1.6 6.4 0.00 0.00 0.00 75 1009.6
20260507042116 13 225 3.2 8.0 0.00 0.00 0.00 75 1009.3
20260507041016 13 225 1.6 4.8 0.00 0.00 0.00 77 1009.2
20260507040016 13 225 1.6 4.8 0.00 0.00 0.00 77 1009.0
20260507035016 13 225 1.6 4.8 0.00 0.00 0.00 78 1009.0
20260507034016 13 225 1.6 4.8 0.00 0.00 0.00 78 1009.0
20260507033016 13 0.0 1.6 0.00 0.00 0.00 78 1008.9
20260507032016 13 0.0 3.2 0.00 0.00 0.00 78 1008.8
20260507031016 13 0.0 4.8 0.00 0.00 0.00 78 1008.8
20260507030056 13 248 1.6 4.8 0.00 0.00 0.00 78 1008.7
20260507025016 13 225 1.6 8.0 0.00 0.00 0.00 78 1008.7
20260507024036 13 0.0 4.8 0.00 0.00 0.00 79 1008.7
20260507023036 13 0.0 3.2 0.00 0.00 0.00 79 1008.7
20260507022016 13 0.0 3.2 0.00 0.00 0.00 79 1008.4
20260507021016 14 0.0 1.6 0.00 0.00 0.00 79 1008.3
20260507020016 14 0.0 3.2 0.00 0.00 0.00 79 1008.3
20260507015036 14 225 1.6 6.4 0.00 0.00 0.00 79 1008.2
20260507014036 14 225 1.6 8.0 0.00 0.00 0.00 79 1008.2
20260507013056 14 248 3.2 9.7 0.00 0.00 0.00 79 1008.1
20260507012016 13 225 1.6 6.4 0.00 0.00 0.00 80 1008.0
20260507011016 13 225 1.6 6.4 0.00 0.00 0.00 80 1008.0
20260507010016 13 0.0 1.6 0.00 0.00 0.00 78 1007.8
20260507005016 13 0.0 1.6 0.00 0.00 0.00 77 1007.7
20260507004016 14 248 3.2 11.3 0.00 0.00 0.00 76 1007.7
20260507003016 13 225 3.2 12.9 0.00 0.00 0.00 79 1007.5
20260507002016 13 225 1.6 6.4 0.00 0.00 0.00 79 1007.5
20260507001016 13 225 1.6 8.0 0.00 0.00 0.00 78 1007.4
20260507000016 14 225 1.6 6.4 0.00 0.00 0.00 78 1007.2
20260506235016 14 0.0 6.4 0.00 0.00 0.00 77 1007.0
20260506234036 15 203 1.6 6.4 0.00 0.00 0.00 76 1006.8
20260506233016 15 203 1.6 6.4 0.00 0.00 0.00 75 1006.8
20260506232016 15 225 3.2 9.7 0.00 0.00 0.00 74 1006.7
20260506231016 15 225 3.2 8.0 0.00 0.00 0.00 74 1006.7
20260506230056 16 225 3.2 9.7 0.00 0.00 0.00 73 1006.7
20260506225056 16 225 3.2 9.7 0.00 0.00 0.00 71 1006.5
20260506224016 16 225 3.2 9.7 0.00 0.00 0.00 71 1006.1
20260506223016 16 90 1.6 6.4 0.00 0.00 0.00 70 1005.9
20260506222016 16 113 1.6 9.7 0.00 0.00 0.00 69 1005.7
20260506221016 17 90 1.6 6.4 0.00 0.00 0.00 68 1005.6
20260506220016 17 90 1.6 12.9 0.00 0.00 0.00 68 1005.5
20260506215036 17 90 3.2 9.7 0.00 0.00 0.00 67 1005.4
20260506214016 17 68 1.6 6.4 0.00 0.00 0.00 66 1005.2
20260506213036 17 90 3.2 11.3 0.00 0.00 0.00 66 1005.2
20260506212016 17 68 1.6 11.3 0.00 0.00 0.00 65 1005.1
20260506211016 17 90 3.2 12.9 0.00 0.00 0.00 65 1005.3
20260506210016 18 113 3.2 9.7 0.00 0.00 0.00 64 1005.1
20260506205016 18 135 1.6 14.5 0.00 0.00 0.00 64 1005.1
20260506204036 18 90 3.2 9.7 0.00 0.00 0.00 63 1005.1
20260506203016 18 90 4.8 12.9 0.00 0.00 0.00 62 1005.0
20260506202016 18 90 4.8 20.9 0.00 0.00 0.00 62 1005.0
20260506201016 18 68 3.2 9.7 0.00 0.00 0.00 62 1004.9
20260506200016 18 90 4.8 19.3 0.00 0.00 0.00 61 1004.9
20260506195016 18 90 3.2 11.3 0.00 0.00 0.00 60 1004.6
20260506194016 19 90 4.8 12.9 0.00 0.00 0.00 60 1004.6
20260506193016 19 90 3.2 12.9 0.00 0.00 0.00 59 1004.6
20260506192016 19 90 4.8 9.7 0.00 0.00 0.00 59 1004.5
20260506191036 20 90 6.4 20.9 0.00 0.00 0.00 58 1004.3
20260506190016 20 90 6.4 16.1 0.00 0.00 0.00 58 1004.2
20260506185016 20 113 8.0 19.3 0.00 0.00 0.00 57 1004.2
20260506184016 20 90 4.8 9.7 0.00 0.00 0.00 57 1004.1
20260506183016 20 90 8.0 22.5 0.00 0.00 0.00 56 1004.0
20260506182016 20 90 4.8 12.9 0.00 0.00 0.00 56 1003.9
20260506181016 20 113 4.8 12.9 0.00 0.00 0.00 55 1003.8
20260506180056 20 90 6.4 19.3 0.00 0.00 0.00 55 1003.8
20260506175016 21 113 6.4 16.1 0.00 0.00 0.00 54 1003.9
20260506174016 21 90 4.8 14.5 0.00 0.00 0.00 53 1003.9
20260506173016 21 90 4.8 16.1 0.00 0.00 0.00 51 1003.9
20260506172016 21 90 6.4 14.5 0.00 0.00 0.00 51 1003.8
20260506171036 21 90 4.8 9.7 0.00 0.00 0.00 50 1003.7
20260506170016 22 90 3.2 9.7 0.00 0.00 0.00 50 1003.7
20260506165016 22 90 4.8 11.3 0.00 0.00 0.00 50 1003.8
20260506164016 22 113 3.2 11.3 0.00 0.00 0.00 49 1003.8
20260506163016 22 113 6.4 17.7 0.00 0.00 0.00 49 1003.9
20260506162016 22 113 4.8 17.7 0.00 0.00 0.00 49 1004.0
20260506161016 22 113 3.2 12.9 0.00 0.00 0.00 48 1004.1
20260506160037 22 90 4.8 14.5 0.00 0.00 0.00 48 1004.2
20260506155056 23 90 8.0 16.1 0.00 0.00 0.00 47 1004.2
20260506154016 23 90 6.4 19.3 0.00 0.00 0.00 47 1004.3
20260506153016 23 90 8.0 17.7 0.00 0.00 0.00 47 1004.3
20260506152016 23 113 6.4 20.9 0.00 0.00 0.00 47 1004.4
20260506151016 24 90 6.4 12.9 0.00 0.00 0.00 45 1004.6
20260506150016 24 90 6.4 17.7 0.00 0.00 0.00 45 1004.6
20260506145016 24 113 4.8 12.9 0.00 0.00 0.00 45 1004.6
20260506144016 24 90 6.4 16.1 0.00 0.00 0.00 43 1004.9
20260506143016 24 90 6.4 16.1 0.00 0.00 0.00 44 1004.9
20260506142016 25 90 4.8 14.5 0.00 0.00 0.00 44 1004.9
20260506141016 25 90 6.4 14.5 0.00 0.00 0.00 44 1005.0
20260506140016 24 113 4.8 14.5 0.00 0.00 0.00 44 1005.0
20260506135036 23 90 4.8 14.5 0.00 0.00 0.00 47 1005.2
20260506134036 23 90 6.4 11.3 0.00 0.00 0.00 47 1005.4
20260506133016 23 90 6.4 14.5 0.00 0.00 0.00 46 1005.4
20260506132016 23 90 4.8 9.7 0.00 0.00 0.00 47 1005.7
20260506131016 23 90 4.8 14.5 0.00 0.00 0.00 48 1005.9
20260506130016 23 90 6.4 16.1 0.00 0.00 0.00 48 1006.3
20260506125016 23 90 6.4 17.7 0.00 0.00 0.00 50 1006.3
20260506124016 23 90 4.8 9.7 0.00 0.00 0.00 50 1006.5
20260506123016 23 113 4.8 14.5 0.00 0.00 0.00 50 1006.6
20260506122036 23 90 6.4 17.7 0.00 0.00 0.00 50 1006.6
20260506121016 23 113 3.2 9.7 0.00 0.00 0.00 52 1006.6
20260506120036 23 90 6.4 16.1 0.00 0.00 0.00 50 1006.7
20260506115016 23 90 6.4 19.3 0.00 0.00 0.00 51 1006.7
20260506114016 25 90 4.8 11.3 0.00 0.00 0.00 50 1006.7
20260506113036 23 90 4.8 19.3 0.00 0.00 0.00 50 1006.7
20260506112016 23 90 4.8 12.9 0.00 0.00 0.00 51 1006.7
20260506111036 23 90 6.4 11.3 0.00 0.00 0.00 51 1006.9
20260506110016 24 90 4.8 12.9 0.00 0.00 0.00 49 1007.0
20260506105016 23 90 4.8 14.5 0.00 0.00 0.00 53 1007.0
20260506104016 24 90 6.4 14.5 0.00 0.00 0.00 49 1007.2
20260506103016 25 203 1.6 8.0 0.00 0.00 0.00 47 1007.2
20260506102016 23 90 3.2 8.0 0.00 0.00 0.00 48 1007.2
20260506101016 23 90 6.4 12.9 0.00 0.00 0.00 48 1007.4
20260506100036 23 90 3.2 8.0 0.00 0.00 0.00 48 1007.6
20260506095016 24 90 3.2 9.7 0.00 0.00 0.00 49 1007.7
20260506094036 23 90 3.2 8.0 0.00 0.00 0.00 47 1007.8
20260506093016 23 90 3.2 8.0 0.00 0.00 0.00 47 1007.7
20260506092136 23 90 1.6 8.0 0.00 0.00 0.00 51 1007.6
20260506091016 23 68 1.6 6.4 0.00 0.00 0.00 50 1007.7
20260506090016 22 113 1.6 6.4 0.00 0.00 0.00 49 1007.8
20260506085016 22 90 1.6 9.7 0.00 0.00 0.00 50 1007.9
20260506084016 22 248 1.6 8.0 0.00 0.00 0.00 52 1008.0
20260506083036 22 90 3.2 8.0 0.00 0.00 0.00 51 1008.0
20260506082016 22 248 1.6 4.8 0.00 0.00 0.00 53 1008.1
20260506081016 22 90 1.6 6.4 0.00 0.00 0.00 57 1008.0
20260506073016 20 90 1.6 3.2 0.00 0.00 0.00 65 1008.2
20260506072016 20 90 1.6 4.8 0.00 0.00 0.00 66 1008.2
20260506071016 20 90 1.6 4.8 0.00 0.00 0.00 64 1008.2